Location: Castelbiague
(43.0361°N, 0.9246°E)
Time: 09:57:08
(UTC+00:00)

COSMOS 2428 - Pass Details

Date: 17 June 2021
Orbit: 845 x 858 km, 70.9° (Epoch: 28 July)

Event Time Altitude Azimuth Distance (km) Brightness Sun altitude
Exits shadow 21:48:19 27° 167° (SSE) 1,595 3.6 -17.2°
Maximum altitude 21:51:08 48° 108° (ESE) 1,103 3.0 -17.5°
Drops below altitude 10° 21:56:38 10° 35° (NE) 2,500 5.5 -18.0°
Sets 21:59:10 0° 30° (NNE) 3,441 6.3 -18.2°
